Preview of NWS' New Version of Forecast
This preview is not operational and should not be used for support decisions.

Regional Weather Roundup (RWR)

Issued by Green Bay, WI (GRB)

                            
397 
ASUS43 KGRB 212311
RWRGRB

NORTH-CENTRAL AND NORTHEAST WISCONSIN REGIONAL WEATHER ROUNDUP
NATIONAL WEATHER SERVICE GREEN BAY WI
600 PM CDT THU JUN 21 2018

WIZ005-009-010>012-018-019-220000-
NORTH CENTRAL WISCONSIN
  
CITY           SKY/WX    TMP DP  RH WIND       PRES   REMARKS
IRONWOOD       FAIR      69  50  50 NE8       29.94F                  
MANITOWISH WTR PTSUNNY   73  59  61 NE5       29.92F                  
ARBOR VITAE    FAIR      77  62  59 SE6       29.92S                  
EAGLE RIVER    FAIR      72  57  59 SE5       29.92F                  
LAND O LAKES   PTSUNNY   74  56  53 NE9       29.94S                  
RHINELANDER    FAIR      76  60  57 E9        29.93S                  
PHILLIPS       PTSUNNY   74  59  58 SE5       29.90S                  
ANTIGO         FAIR      73  56  56 E10       29.92S                  
TOMAHAWK       FAIR      76  58  53 NE7       29.91S                  
MERRILL        FAIR      77  59  53 SE7       29.89F                  
$$

WIZ013-073-220000-
NORTHEAST WISCONSIN
  
CITY           SKY/WX    TMP DP  RH WIND       PRES   REMARKS
IRON MOUNTAIN  FAIR      72  57  59 SE7       29.92R                  
MARINETTE      FAIR      66  52  60 E13G20    29.92F                  
OCONTO         FAIR      70  54  57 NE8       29.90S                  
$$

WIZ017-030-035>037-045-220000-
CENTRAL WISCONSIN
  
CITY           SKY/WX    TMP DP  RH WIND       PRES   REMARKS
MEDFORD        FAIR      75  56  52 E8        29.89S                  
WAUSAU         FAIR      77  56  48 E12       29.87S                  
MOSINEE        PTSUNNY   75  57  53 E10       29.89S                  
MARSHFIELD     FAIR      74  61  63 VRB5      29.86F                  
WISC RAPIDS    FAIR      75  57  53 E7        29.87S                  
STEVENS POINT  FAIR      74  56  53 E12       29.88S                  
WAUPACA        FAIR      75  56  51 NE8       29.88R                  
SHAWANO        FAIR      73  57  56 E12       29.89S                  
CLINTONVILLE   NOT AVBL                                               
WAUTOMA        PTSUNNY   72  62  71 E9          N/A                   
$$

WIZ038-039-048-051-220000-
FOX VALLEY
  
CITY           SKY/WX    TMP DP  RH WIND       PRES   REMARKS
NWS GREEN BAY  FAIR      69  59  70 NE16      29.88F                  
APPLETON       PTSUNNY   72  55  56 NE10      29.86S                  
OSHKOSH        FAIR      72  62  71 NE12G22   29.85S                  
FOND DU LAC    CLOUDY    71  58  63 NE12      29.85F                  
$$

WIZ022-050-052-220000-
EAST CENTRAL WISCONSIN
  
CITY           SKY/WX    TMP DP  RH WIND       PRES   REMARKS
EPHRAIM        FAIR      65  51  61 NE7       29.91S                  
WASHINGTON ISL NOT AVBL                                               
STURGEON BAY   FAIR      68  53  58 NE8       29.91F                  
MANITOWOC      FAIR      64  54  69 N8        29.88S                  
SHEBOYGAN      PTSUNNY   65  55  70 NE15G23   29.86S                  
$$

LMZ563-521-522-541>543-220000-
LAKESHORE
  
STATION/POSITION TIME  TEMP    WIND        PRES    VSBY  WAVE
                       AIR SEA DIR/SP/G                  HT/PER
                 (UTC) (F)     (DEG/KT/KT) (MB)    (MI)  (FT/S)
SHEBOYGAN LKSHOR 2300   58     360/ 14/ 16 1011.1S
KEWAUNEE LKSHORE 2242   61      20/  9/ 15 1011.7F
NORTHPORT PIER   2240   63      50/  4/  6 1013.2F
N MID LAKE BUOY  2250   50 45   30/  8/ 10 1012.8S         2/ 4
S GREEN BAY BUOY 2300   65 69   60/ 17/ 21 1012.4
MENOMINEE LKSHOR 2242   63      30/ 13/ 15 1013.0S
$$